Weather History for KJFK - March, 2014

Change the Weather History Date:

Friday, March 14, 2014

  Actual Average Record
Temperature  
Mean Temperature 32 °F 41 °F  
Max Temperature 42 °F 48 °F 72 °F (2012)
Min Temperature 22 °F 34 °F 19 °F (1993)
Degree Days  
Heating Degree Days 33 24  
Month to date heating degree days 421 360  
Since 1 July heating degree days 4128 3871  
Cooling Degree Days 0 0  
Month to date cooling degree days 0 0  
Year to date cooling degree days 0 0  
Moisture  
Dew Point 14 °F    
Average Humidity 52    
Maximum Humidity 76    
Minimum Humidity 27    
Precipitation  
Precipitation 0.00 in 0.12 in 1.25 in (1961)
Month to date precipitation 0.19 1.57  
Year to date precipitation 7.79 7.32  
Snow  
Snow 0.00 in 0.10 in 2.10 in (1999)
Month to date snowfall 0.6 2.2  
Since 1 July snowfall 45.5 21.7  
Snow Depth 0.00 in    
Sea Level Pressure  
Sea Level Pressure 30.13 in    
Wind  
Wind Speed 15 mph (SW)    
Max Wind Speed 28 mph    
Max Gust Speed 38 mph    
Visibility 10 miles    
Events      
T = Trace of Precipitation, MM = Missing Value Source: NWS Daily Summary

Daily Weather History Graph

Daily Weather History Graph

Search for Another Location

Airport or City:

Trip Planner

Search our weather history database for the weather conditions in past years. The results will help you decide how hot, cold, wet, or windy it might be!

Date:

Astronomy

Mar. 14, 2014 Rise Set
Actual Time 7:08 AM EDT 7:00 PM EDT
Civil Twilight 6:41 AM EDT 7:27 PM EDT
Nautical Twilight 6:09 AM EDT 7:59 PM EDT
Astronomical Twilight 5:37 AM EDT 8:31 PM EDT
Moon 5:20 PM EDT (3/14) 5:47 AM EDT (3/14)
Length of Visible Light 12h 46m
Length of Day
11h 52m
Waxing Gibbous, 96% of the Moon is Illuminated
Mar 14
Waxing Gibbous
Mar 16
Full
Mar 23
Last Quarter
Mar 30
New
Apr 7
First Quarter

Hourly Weather History & Observations

Time (EDT) Temp. Windchill Dew Point Humidity Pressure Visibility Wind Dir Wind Speed Gust Speed Precip Events Conditions
12:51 AM 21.9 °F 7.8 °F -2.9 °F 34% 30.12 in 10.0 mi NW 17.3 mph - N/A   Partly Cloudy
1:51 AM 21.9 °F 9.2 °F -4.0 °F 32% 30.14 in 10.0 mi NW 13.8 mph - N/A   Partly Cloudy
2:51 AM 23.0 °F 9.2 °F -5.1 °F 29% 30.15 in 10.0 mi NW 17.3 mph - N/A   Partly Cloudy
3:51 AM 24.1 °F 12.0 °F -4.0 °F 29% 30.16 in 10.0 mi NW 13.8 mph - N/A   Scattered Clouds
4:51 AM 24.1 °F 12.0 °F -5.1 °F 28% 30.19 in 10.0 mi West 13.8 mph - N/A   Scattered Clouds
5:51 AM 23.0 °F 13.9 °F -4.0 °F 31% 30.21 in 10.0 mi West 8.1 mph - N/A   Scattered Clouds
6:51 AM 23.0 °F 15.8 °F -0.0 °F 37% 30.22 in 10.0 mi WSW 5.8 mph - N/A   Partly Cloudy
7:51 AM 27.0 °F 18.0 °F 3.9 °F 37% 30.24 in 10.0 mi WSW 9.2 mph - N/A   Partly Cloudy
8:51 AM 30.9 °F 21.7 °F 9.0 °F 40% 30.25 in 10.0 mi SW 11.5 mph - N/A   Mostly Cloudy
9:51 AM 30.9 °F 22.8 °F 8.1 °F 38% 30.25 in 10.0 mi WSW 9.2 mph - N/A   Mostly Cloudy
10:51 AM 32.0 °F 24.2 °F 9.0 °F 38% 30.24 in 10.0 mi SW 9.2 mph - N/A   Mostly Cloudy
11:51 AM 35.1 °F 26.9 °F 12.0 °F 39% 30.22 in 10.0 mi South 11.5 mph - N/A   Mostly Cloudy
12:51 PM 37.9 °F 29.6 °F 15.1 °F 39% 30.21 in 10.0 mi South 13.8 mph - N/A   Mostly Cloudy
1:51 PM 39.9 °F 30.8 °F 19.0 °F 43% 30.17 in 10.0 mi South 18.4 mph - N/A   Mostly Cloudy
2:51 PM 42.1 °F 33.3 °F 23.0 °F 47% 30.13 in 10.0 mi South 19.6 mph - N/A   Scattered Clouds
3:51 PM 42.1 °F 32.8 °F 25.0 °F 51% 30.11 in 10.0 mi South 21.9 mph 29.9 mph N/A   Scattered Clouds
4:51 PM 41.0 °F 30.9 °F 26.1 °F 55% 30.06 in 10.0 mi South 24.2 mph 32.2 mph N/A   Scattered Clouds
5:51 PM 39.0 °F 27.6 °F 26.1 °F 60% 30.04 in 10.0 mi South 27.6 mph 34.5 mph N/A   Mostly Cloudy
6:51 PM 37.9 °F 26.8 °F 27.0 °F 65% 30.04 in 10.0 mi South 24.2 mph 32.2 mph N/A   Mostly Cloudy
7:51 PM 37.9 °F 26.6 °F 28.9 °F 70% 30.01 in 10.0 mi South 25.3 mph - N/A   Mostly Cloudy
8:51 PM 37.9 °F 28.5 °F 30.0 °F 73% 30.01 in 10.0 mi South 17.3 mph - N/A   Mostly Cloudy
9:51 PM 37.9 °F 29.6 °F 30.0 °F 73% 29.99 in 10.0 mi South 13.8 mph - N/A   Overcast
10:51 PM 37.9 °F 32.7 °F 30.9 °F 76% 29.98 in 10.0 mi South 6.9 mph - N/A   Overcast
11:51 PM 39.0 °F 31.4 °F 30.9 °F 73% 29.94 in 10.0 mi South 12.7 mph - N/A   Overcast